| time (UTC) | temp C | wind direction | speed KPH | gust KPH | rain 1hr cm | rain 24hr cm | rain mn cm | humidity % | barometer mb |
| 20260503050424 | 10 | 0.0 | 0.0 | 0.00 | 0.00 | 0.00 | 71 | 1016.2 | |
| 20260503045426 | 11 | 182 | 4.8 | 4.8 | 0.00 | 0.00 | 0.00 | 69 | 1016.2 |
| 20260503044428 | 11 | 0.0 | 0.0 | 0.00 | 0.00 | 0.00 | 66 | 1016.3 | |
| 20260503043423 | 12 | 0.0 | 0.0 | 0.00 | 0.00 | 0.00 | 64 | 1016.2 | |
| 20260503042422 | 12 | 1.6 | 3.2 | 0.00 | 0.00 | 0.00 | 62 | 1016.2 | |
| 20260503041421 | 12 | 313 | 4.8 | 4.8 | 0.00 | 0.00 | 0.00 | 65 | 1016.0 |
| 20260503040443 | 13 | 0.0 | 0.0 | 0.00 | 0.00 | 0.00 | 61 | 1016.2 | |
| 20260503035424 | 13 | 0.0 | 0.0 | 0.00 | 0.00 | 0.00 | 60 | 1016.0 | |
| 20260503034446 | 14 | 0.0 | 0.0 | 0.00 | 0.00 | 0.00 | 55 | 1015.8 | |
| 20260503033423 | 14 | 314 | 6.4 | 8.0 | 0.00 | 0.00 | 0.00 | 57 | 1016.0 |
| 20260503032423 | 15 | 0.0 | 0.0 | 0.00 | 0.00 | 0.00 | 55 | 1015.8 | |
| 20260503031422 | 15 | 0.0 | 0.0 | 0.00 | 0.00 | 0.00 | 52 | 1015.7 | |
| 20260503030422 | 16 | 0.0 | 1.6 | 0.00 | 0.00 | 0.00 | 49 | 1015.6 | |
| 20260503025444 | 17 | 78 | 1.6 | 3.2 | 0.00 | 0.00 | 0.00 | 48 | 1015.8 |
| 20260503024424 | 17 | 0.0 | 0.0 | 0.00 | 0.00 | 0.00 | 45 | 1015.4 | |
| 20260503023422 | 18 | 0.0 | 0.0 | 0.00 | 0.00 | 0.00 | 41 | 1015.5 | |
| 20260503022443 | 19 | 0.0 | 0.0 | 0.00 | 0.00 | 0.00 | 43 | 1015.4 | |
| 20260503021423 | 20 | 134 | 0.0 | 1.6 | 0.00 | 0.00 | 0.00 | 36 | 1015.5 |
| 20260503020420 | 21 | 59 | 1.6 | 3.2 | 0.00 | 0.00 | 0.00 | 34 | 1015.4 |
| 20260503015421 | 21 | 0.0 | 0.0 | 0.00 | 0.00 | 0.00 | 35 | 1015.5 | |
| 20260503014423 | 20 | 140 | 0.0 | 1.6 | 0.00 | 0.00 | 0.00 | 36 | 1015.7 |
| 20260503013421 | 20 | 0.0 | 0.0 | 0.00 | 0.00 | 0.00 | 39 | 1015.7 | |
| 20260503012442 | 20 | 226 | 1.6 | 3.2 | 0.00 | 0.00 | 0.00 | 37 | 1015.5 |
| 20260503011422 | 20 | 172 | 3.2 | 3.2 | 0.00 | 0.00 | 0.00 | 36 | 1015.6 |
| 20260503010429 | 21 | 147 | 4.8 | 4.8 | 0.00 | 0.00 | 0.00 | 33 | 1015.7 |
| 20260503005421 | 22 | 168 | 6.4 | 8.0 | 0.00 | 0.00 | 0.00 | 34 | 1015.6 |
| 20260503004421 | 22 | 186 | 8.0 | 9.7 | 0.00 | 0.00 | 0.00 | 29 | 1015.7 |
| 20260503003444 | 24 | 167 | 6.4 | 6.4 | 0.00 | 0.00 | 0.00 | 27 | 1015.9 |
| 20260503002422 | 22 | 162 | 1.6 | 3.2 | 0.00 | 0.00 | 0.00 | 30 | 1015.9 |
| 20260503001422 | 22 | 179 | 4.8 | 4.8 | 0.00 | 0.00 | 0.00 | 40 | 1015.8 |
| 20260503000430 | 22 | 0.0 | 1.6 | 0.00 | 0.00 | 0.00 | 28 | 1015.8 | |
| 20260502235429 | 23 | 3.2 | 4.8 | 0.00 | 0.00 | 0.00 | 26 | 1016.0 | |
| 20260502234421 | 23 | 131 | 3.2 | 3.2 | 0.00 | 0.00 | 0.00 | 28 | 1015.9 |
| 20260502233422 | 23 | 83 | 3.2 | 4.8 | 0.00 | 0.00 | 0.00 | 32 | 1016.1 |
| 20260502232423 | 23 | 79 | 3.2 | 4.8 | 0.00 | 0.00 | 0.00 | 27 | 1016.2 |
| 20260502231422 | 23 | 92 | 1.6 | 3.2 | 0.00 | 0.00 | 0.00 | 30 | 1016.3 |
| 20260502230426 | 23 | 177 | 4.8 | 4.8 | 0.00 | 0.00 | 0.00 | 36 | 1016.4 |
| 20260502225448 | 22 | 161 | 6.4 | 8.0 | 0.00 | 0.00 | 0.00 | 32 | 1016.5 |
| 20260502224429 | 22 | 235 | 1.6 | 3.2 | 0.00 | 0.00 | 0.00 | 28 | 1016.6 |
| 20260502223421 | 22 | 170 | 6.4 | 6.4 | 0.00 | 0.00 | 0.00 | 31 | 1016.9 |
| 20260502222422 | 24 | 158 | 3.2 | 4.8 | 0.00 | 0.00 | 0.00 | 27 | 1017.0 |
| 20260502221423 | 25 | 78 | 3.2 | 3.2 | 0.00 | 0.00 | 0.00 | 24 | 1016.9 |
| 20260502220445 | 26 | 122 | 1.6 | 6.4 | 0.00 | 0.00 | 0.00 | 22 | 1017.1 |
| 20260502215426 | 25 | 115 | 1.6 | 3.2 | 0.00 | 0.00 | 0.00 | 23 | 1016.9 |
| 20260502214427 | 23 | 325 | 3.2 | 3.2 | 0.00 | 0.00 | 0.00 | 26 | 1017.4 |
| 20260502213423 | 25 | 348 | 3.2 | 3.2 | 0.00 | 0.00 | 0.00 | 25 | 1017.5 |
| 20260502212421 | 26 | 319 | 6.4 | 6.4 | 0.00 | 0.00 | 0.00 | 24 | 1017.5 |
| 20260502211422 | 27 | 217 | 1.6 | 4.8 | 0.00 | 0.00 | 0.00 | 22 | 1017.6 |
| 20260502210423 | 26 | 79 | 3.2 | 4.8 | 0.00 | 0.00 | 0.00 | 23 | 1017.7 |
| 20260502205424 | 26 | 21 | 11.3 | 12.9 | 0.00 | 0.00 | 0.00 | 23 | 1017.7 |
| 20260502204426 | 27 | 351 | 4.8 | 6.4 | 0.00 | 0.00 | 0.00 | 22 | 1018.0 |
| 20260502203422 | 26 | 187 | 4.8 | 4.8 | 0.00 | 0.00 | 0.00 | 23 | 1018.1 |
| 20260502202422 | 26 | 294 | 4.8 | 4.8 | 0.00 | 0.00 | 0.00 | 23 | 1018.2 |
| 20260502201421 | 23 | 197 | 4.8 | 9.7 | 0.00 | 0.00 | 0.00 | 27 | 1018.3 |
| 20260502200422 | 26 | 55 | 3.2 | 6.4 | 0.00 | 0.00 | 0.00 | 27 | 1018.6 |
| 20260502195423 | 27 | 332 | 1.6 | 3.2 | 0.00 | 0.00 | 0.00 | 24 | 1018.7 |
| 20260502194424 | 25 | 212 | 1.6 | 1.6 | 0.00 | 0.00 | 0.00 | 26 | 1018.8 |
| 20260502193422 | 25 | 186 | 6.4 | 6.4 | 0.00 | 0.00 | 0.00 | 26 | 1018.9 |
| 20260502192503 | 24 | 351 | 4.8 | 6.4 | 0.00 | 0.00 | 0.00 | 26 | 1019.1 |
| 20260502191423 | 23 | 354 | 4.8 | 6.4 | 0.00 | 0.00 | 0.00 | 27 | 1019.3 |
| 20260502190421 | 23 | 3 | 4.8 | 6.4 | 0.00 | 0.00 | 0.00 | 30 | 1019.3 |
| 20260502185422 | 23 | 310 | 1.6 | 1.6 | 0.00 | 0.00 | 0.00 | 31 | 1019.5 |
| 20260502184444 | 22 | 319 | 8.0 | 9.7 | 0.00 | 0.00 | 0.00 | 31 | 1019.6 |
| 20260502183421 | 23 | 340 | 4.8 | 6.4 | 0.00 | 0.00 | 0.00 | 29 | 1019.7 |
| 20260502182422 | 22 | 187 | 4.8 | 6.4 | 0.00 | 0.00 | 0.00 | 30 | 1019.6 |
| 20260502181443 | 21 | 30 | 8.0 | 9.7 | 0.00 | 0.00 | 0.00 | 32 | 1019.9 |
| 20260502180429 | 21 | 353 | 4.8 | 4.8 | 0.00 | 0.00 | 0.00 | 34 | 1020.0 |
| 20260502170428 | 18 | 346 | 4.8 | 6.4 | 0.00 | 0.00 | 0.00 | 47 | 1020.4 |
| 20260502163442 | 15 | 14 | 4.8 | 6.4 | 0.00 | 0.00 | 0.00 | 55 | 1020.6 |
| 20260502162423 | 14 | 340 | 3.2 | 4.8 | 0.00 | 0.00 | 0.00 | 57 | 1020.5 |
| 20260502161421 | 13 | 18 | 3.2 | 6.4 | 0.00 | 0.00 | 0.00 | 59 | 1020.5 |
| 20260502160426 | 13 | 339 | 8.0 | 9.7 | 0.00 | 0.00 | 0.00 | 62 | 1020.7 |
| 20260502151424 | 10 | 19 | 4.8 | 4.8 | 0.00 | 0.00 | 0.00 | 67 | 1020.7 |
| 20260502150506 | 10 | 337 | 6.4 | 6.4 | 0.00 | 0.00 | 0.00 | 69 | 1020.6 |
| 20260502130423 | 3 | 0.0 | 0.0 | 0.00 | 0.00 | 0.00 | 86 | 1019.9 | |
| 20260502123423 | 3 | 313 | 1.6 | 3.2 | 0.00 | 0.00 | 0.00 | 85 | 1019.6 |
| 20260502122422 | 4 | 227 | 1.6 | 3.2 | 0.00 | 0.00 | 0.00 | 85 | 1019.9 |
| 20260502121423 | 3 | 0.0 | 0.0 | 0.00 | 0.00 | 0.00 | 84 | 1019.7 | |
| 20260502120422 | 4 | 0.0 | 1.6 | 0.00 | 0.00 | 0.00 | 82 | 1019.9 | |
| 20260502115422 | 5 | 180 | 4.8 | 4.8 | 0.00 | 0.00 | 0.00 | 81 | 1019.9 |
| 20260502114446 | 6 | 0.0 | 1.6 | 0.00 | 0.00 | 0.00 | 76 | 1019.7 | |
| 20260502113421 | 6 | 328 | 1.6 | 3.2 | 0.00 | 0.00 | 0.00 | 76 | 1019.5 |
| 20260502112423 | 5 | 323 | 3.2 | 4.8 | 0.00 | 0.00 | 0.00 | 78 | 1019.7 |
| 20260502111422 | 5 | 339 | 3.2 | 3.2 | 0.00 | 0.00 | 0.00 | 79 | 1019.7 |
| 20260502110429 | 5 | 0.0 | 0.0 | 0.00 | 0.00 | 0.00 | 81 | 1019.5 | |
| 20260502105420 | 5 | 0.0 | 0.0 | 0.00 | 0.00 | 0.00 | 82 | 1019.5 | |
| 20260502104423 | 5 | 315 | 4.8 | 4.8 | 0.00 | 0.00 | 0.00 | 81 | 1019.6 |
| 20260502103424 | 5 | 205 | 1.6 | 3.2 | 0.00 | 0.00 | 0.00 | 80 | 1019.6 |
| 20260502102421 | 5 | 330 | 1.6 | 3.2 | 0.00 | 0.00 | 0.00 | 80 | 1019.4 |
| 20260502101423 | 6 | 178 | 3.2 | 3.2 | 0.00 | 0.00 | 0.00 | 79 | 1019.0 |
| 20260502100428 | 6 | 20 | 1.6 | 3.2 | 0.00 | 0.00 | 0.00 | 79 | 1018.9 |
| 20260502091421 | 6 | 10 | 1.6 | 3.2 | 0.00 | 0.00 | 0.00 | 86 | 1018.8 |
| 20260502090427 | 6 | 24 | 1.6 | 3.2 | 0.00 | 0.00 | 0.00 | 85 | 1018.7 |
| 20260502071422 | 8 | 340 | 3.2 | 4.8 | 0.00 | 0.00 | 0.00 | 82 | 1018.6 |
| 20260502070424 | 8 | 359 | 3.2 | 4.8 | 0.00 | 0.00 | 0.00 | 78 | 1018.6 |
| 20260502065424 | 8 | 311 | 4.8 | 4.8 | 0.00 | 0.00 | 0.00 | 79 | 1018.4 |
| 20260502064428 | 8 | 0.0 | 0.0 | 0.00 | 0.00 | 0.00 | 76 | 1018.6 | |
| 20260502063422 | 8 | 44 | 4.8 | 6.4 | 0.00 | 0.00 | 0.00 | 76 | 1018.4 |
| 20260502062422 | 9 | 1.6 | 3.2 | 0.00 | 0.00 | 0.00 | 73 | 1018.3 | |
| 20260502061441 | 9 | 326 | 4.8 | 4.8 | 0.00 | 0.00 | 0.00 | 72 | 1018.2 |
| 20260502060422 | 10 | 0.0 | 0.0 | 0.00 | 0.00 | 0.00 | 69 | 1018.1 | |
| 20260502055424 | 10 | 335 | 3.2 | 4.8 | 0.00 | 0.00 | 0.00 | 69 | 1018.1 |
| 20260502054425 | 10 | 343 | 0.0 | 3.2 | 0.00 | 0.00 | 0.00 | 74 | 1018.0 |
| 20260502053422 | 10 | 334 | 4.8 | 4.8 | 0.00 | 0.00 | 0.00 | 69 | 1018.1 |
| 20260502052424 | 11 | 345 | 3.2 | 3.2 | 0.00 | 0.00 | 0.00 | 67 | 1017.9 |
| 20260502051422 | 11 | 0.0 | 0.0 | 0.00 | 0.00 | 0.00 | 65 | 1018.0 |